Theta_e
330 331 331 334 335 332 335 335 335 336 343 359 352 350 348 345 343 341 340 339 339 338 339 337 337 338 339 337 338 339 340 342 350 358 359 359 359 359 357 356 358 357 359 359
335 332 330 333 333 335 338 338 334 337 350 351 343 345 343 342 340 340 339 339 338 338 337 337 336 335 335 336 337 334 335 335 332 331 338 340 341 348 355 358 360 358 356 356
337 331 332 335 334 338 342 342 340 343 350 345 342 341 339 338 337 338 337 337 337 337 336 335 335 335 335 335 335 334 336 335 333 329 329 325 324 327 336 342 350 356 360 361
339 336 340 340 336 336 341 340 343 346 347 342 335 331 331 332 333 331 330 330 331 330 329 329 331 331 333 333 334 334 335 336 336 335 333 334 333 333 334 337 338 342 350 357
339 339 337 339 339 342 344 343 340 342 335 332 330 331 331 329 329 330 330 329 329 328 328 327 327 328 329 329 329 328 329 332 335 335 335 333 334 332 329 331 335 339 343 351
331 339 340 339 334 332 337 348 336 334 333 332 334 342 334 329 328 328 327 327 326 325 325 324 322 321 323 325 324 328 328 330 331 334 336 336 337 337 335 334 333 332 339 340
332 335 331 330 329 331 342 342 335 333 334 337 337 334 329 326 325 323 323 322 322 322 322 322 321 321 322 322 323 323 324 324 325 329 332 331 336 335 332 336 336 335 337 339
327 330 332 326 329 338 334 331 330 329 329 329 328 326 325 323 322 321 321 321 320 320 320 320 320 320 320 320 321 322 324 325 326 327 327 328 332 335 338 338 336 336 336 337
327 330 326 324 327 325 327 327 326 326 325 325 324 323 321 321 322 321 320 319 318 318 318 318 318 318 319 319 319 319 321 324 325 325 326 327 329 332 333 333 334 332 331 334
330 327 326 325 324 325 324 324 323 323 322 321 322 321 321 321 320 318 317 317 317 317 317 318 318 318 319 319 319 320 320 321 322 323 324 325 325 326 330 331 331 331 331 332
327 325 323 323 323 322 321 321 321 321 321 321 320 320 319 318 318 317 317 317 317 318 318 318 318 318 318 318 319 320 320 320 321 320 321 324 325 324 325 328 330 330 332 332
331 326 327 325 321 320 321 321 321 319 319 319 318 317 316 317 317 317 317 317 317 318 318 318 318 318 318 318 318 319 320 320 320 319 320 321 324 325 325 326 325 326 326 331
326 324 324 322 321 319 320 320 320 319 319 318 316 316 316 317 317 317 317 317 317 317 317 317 317 317 317 318 318 319 319 320 320 320 320 322 324 326 326 326 329 327 327 328
322 322 322 321 321 319 319 319 318 318 316 315 316 316 317 317 317 317 317 317 317 317 317 317 317 317 318 318 318 318 319 319 319 320 320 321 322 324 327 328 328 329 329 330
320 320 321 319 319 319 318 319 318 317 316 316 317 317 317 317 317 317 316 316 316 316 316 316 316 316 316 316 317 318 318 319 320 321 322 322 322 324 326 327 327 327 327 329
319 319 319 319 319 320 319 318 317 317 317 317 317 317 316 316 316 316 316 315 315 316 316 316 315 315 315 316 317 317 318 318 318 319 321 322 323 323 325 326 326 327 329 328
320 320 320 319 320 319 318 317 317 317 317 317 316 315 315 314 314 314 314 314 314 315 316 315 316 315 315 315 316 317 318 318 319 319 320 321 323 323 323 325 326 325 327 327
319 319 318 318 318 318 318 317 317 317 317 315 315 314 314 313 313 313 312 312 312 313 315 314 313 314 315 317 317 317 318 318 319 319 319 320 322 323 325 325 325 327 328 328
317 318 317 317 317 317 317 317 316 316 315 314 314 314 314 314 313 311 311 312 312 312 312 311 312 313 314 316 315 316 316 318 321 320 320 320 322 322 322 323 325 326 327 326
317 317 317 317 317 317 316 316 317 315 314 314 314 314 314 314 314 313 311 311 312 312 311 311 312 316 319 319 319 318 319 320 320 320 320 319 320 320 321 322 324 324 326 327
318 317 317 318 316 315 315 317 316 315 314 314 314 314 314 314 314 314 313 313 312 312 311 311 312 313 316 319 320 320 320 320 320 320 320 320 321 321 322 323 323 324 323 321
317 317 318 317 316 317 316 317 316 314 315 314 314 314 314 315 315 314 313 312 312 311 311 312 311 312 314 316 316 316 316 316 315 315 315 315 316 317 319 321 322 321 319 318
317 317 318 317 316 317 316 317 317 316 316 316 315 315 315 315 315 315 314 312 312 311 311 311 311 311 312 312 313 313 313 313 313 313 313 313 313 314 315 316 316 316 315 315
317 317 318 316 316 316 318 318 318 317 317 317 317 316 316 315 315 315 315 312 310 311 310 310 310 311 311 311 311 312 311 311 311 311 311 311 311 312 312 313 313 313 312 312
318 318 316 316 316 317 317 317 316 317 318 317 317 316 316 315 314 315 316 315 310 311 312 310 310 310 310 311 312 311 312 312 311 311 311 310 310 310 310 310 310 310 310 310
317 316 315 315 315 315 315 315 316 317 317 318 317 317 316 315 314 314 315 315 315 313 313 313 314 313 309 309 311 311 311 310 312 312 312 310 310 309 309 309 309 309 310 310
315 313 315 316 315 314 314 314 315 316 316 316 316 316 316 315 314 314 313 315 315 314 314 315 315 314 311 308 310 310 311 311 310 310 310 310 310 310 310 310 310 309 309 309
Wind_Speed
1 2 4 5 10 10 7 2 4 6 4 7 8 11 12 13 14 17 18 18 17 17 17 20 22 23 24 24 23 21 23 20 15 11 9 6 4 5 6 8 10 11 12 14
3 1 2 4 3 4 2 2 3 9 8 8 11 13 14 13 14 15 16 16 15 15 18 17 17 18 19 19 18 19 20 18 17 16 13 11 10 10 9 7 6 9 13 16
4 1 1 4 7 5 3 1 1 7 9 15 14 13 12 12 13 14 14 14 14 13 15 13 13 12 13 11 12 14 13 12 13 14 14 15 15 14 13 12 10 9 10 11
2 5 8 5 4 4 7 3 3 12 17 15 15 13 13 11 14 14 13 12 10 12 12 12 10 11 9 9 9 9 8 8 8 10 12 13 14 14 14 14 14 14 14 14
4 9 2 3 5 7 6 3 4 14 18 19 18 18 12 10 10 10 9 8 9 9 8 9 11 12 12 12 12 12 12 12 11 12 12 13 13 16 17 18 17 15 15 17
4 7 11 2 7 2 4 4 10 17 18 18 11 7 6 6 5 6 5 5 6 7 8 9 13 15 14 13 15 14 15 15 15 14 13 13 12 12 13 13 16 18 20 19
9 9 2 3 1 4 8 4 17 17 13 10 4 3 12 7 5 5 4 6 7 8 9 11 13 15 15 15 16 18 18 18 18 17 17 18 17 17 17 15 14 15 19 22
4 7 12 2 4 6 6 13 14 12 11 13 12 10 8 6 3 3 3 5 7 9 11 12 13 13 14 16 18 18 19 19 18 18 18 18 18 19 18 16 16 16 17 20
3 2 4 1 1 9 12 15 12 13 10 10 9 6 4 3 4 6 9 11 13 14 17 16 15 15 19 22 21 21 21 21 20 20 20 19 18 19 19 18 18 19 21 19
5 3 7 9 10 11 12 13 11 9 8 7 6 4 3 3 5 8 10 13 15 16 18 20 20 20 20 21 22 23 25 24 23 22 23 23 23 21 20 20 21 21 21 21
3 5 6 5 9 11 11 10 9 8 7 6 3 2 3 6 8 11 12 14 15 17 19 23 23 24 25 25 25 26 26 26 26 25 25 23 23 24 23 23 23 22 22 22
4 13 2 11 9 8 8 8 7 6 5 5 6 6 7 8 11 13 16 18 19 20 21 24 24 26 26 25 26 27 28 25 25 25 24 24 23 24 25 27 29 29 28 28
3 14 7 13 10 7 7 6 5 4 4 4 7 8 11 13 15 18 18 19 21 22 24 25 26 27 25 26 25 25 27 27 26 24 23 23 22 21 23 23 22 24 27 30
14 15 11 9 5 6 6 6 5 4 4 5 7 12 14 16 20 21 21 24 25 27 28 28 29 30 29 28 27 26 27 27 26 25 24 24 24 23 23 21 19 17 19 22
8 5 11 10 9 6 5 4 1 3 5 7 10 13 16 18 20 23 24 25 26 29 30 30 30 31 31 31 27 27 27 26 25 23 22 23 24 24 22 23 19 15 16 18
9 12 11 9 7 6 4 3 2 3 5 9 12 15 18 20 23 25 25 25 25 25 32 30 30 32 32 31 30 28 26 27 28 26 24 24 25 24 24 23 21 18 16 17
14 9 8 6 6 6 5 2 2 3 6 8 12 16 18 20 21 21 23 24 24 27 27 27 30 29 29 28 28 26 25 24 25 25 24 24 25 24 24 23 21 21 21 19
9 9 7 7 6 5 4 2 1 2 3 6 7 11 14 16 18 20 22 24 24 23 25 26 30 31 29 26 24 24 24 24 25 25 24 23 23 22 21 20 19 18 19 20
13 11 9 7 6 4 2 1 1 2 2 1 5 9 11 15 18 20 21 22 21 21 29 35 36 36 32 29 25 24 25 26 22 20 20 21 19 19 19 19 17 17 19 19
11 9 8 7 5 4 2 3 3 3 3 2 6 9 13 17 20 22 22 19 19 23 31 34 34 29 25 21 17 19 20 17 17 18 17 17 16 17 16 17 18 18 21 17
9 8 7 6 5 3 3 4 4 5 4 5 8 11 16 20 20 21 22 18 27 29 31 30 29 29 24 19 13 12 12 13 13 14 13 14 15 18 19 19 19 19 18 16
8 6 6 6 5 2 3 4 5 7 8 9 10 13 18 20 19 17 17 18 24 28 27 27 28 25 20 17 15 14 13 12 12 12 13 14 14 14 15 17 17 17 15 15
5 4 4 5 5 3 3 5 6 7 10 11 12 13 13 16 16 13 11 18 16 21 23 25 29 30 24 19 16 15 15 14 14 14 15 14 14 14 10 6 8 10 12 13
5 6 5 4 4 4 5 4 6 8 9 10 10 10 11 14 17 11 11 12 14 13 16 20 26 29 28 25 22 18 19 16 14 12 13 13 11 9 6 4 7 10 11 14
4 3 3 4 6 5 6 7 9 9 8 9 8 7 9 9 10 16 14 12 12 12 12 16 20 22 24 21 17 15 15 15 16 13 13 13 13 11 10 9 11 13 13 14
4 4 4 5 5 6 7 7 9 10 9 10 10 8 9 11 12 13 13 15 18 16 16 18 17 13 16 18 15 16 14 12 13 14 14 14 13 14 14 13 14 15 15 16
3 3 4 5 5 6 6 8 9 12 9 8 11 13 9 12 12 14 15 15 16 14 15 15 13 9 6 9 10 10 10 9 12 11 13 16 17 15 14 15 16 16 17 19
Wind_Direction
209 307 233 212 188 180 206 191 228 132 136 121 104 101 93 92 85 80 78 74 70 70 66 60 61 62 61 59 57 61 68 67 60 53 49 39 356 310 280 270 270 274 270 266
173 114 163 193 143 167 179 148 153 145 121 141 123 117 105 96 93 85 80 76 74 72 67 58 57 59 61 59 56 57 58 57 53 50 44 36 24 12 0 356 330 289 275 271
215 15 138 228 201 189 143 148 200 195 143 149 132 113 103 101 87 83 78 74 69 64 61 50 49 42 51 51 51 51 49 44 37 33 26 18 11 8 357 353 350 331 300 281
195 157 221 37 286 216 135 94 146 123 143 138 121 106 91 86 94 88 82 73 62 58 48 35 31 27 25 30 28 25 26 19 14 11 8 1 357 353 346 343 344 335 320 302
215 220 18 226 182 170 200 139 152 140 137 132 127 110 83 85 84 86 76 65 53 44 33 19 11 4 5 0 353 353 351 344 342 340 338 336 330 334 339 336 336 333 321 308
165 234 239 107 142 216 181 191 161 151 146 147 158 149 144 136 105 92 75 58 31 4 347 358 355 351 345 346 336 336 332 326 316 309 302 296 297 304 312 321 324 325 317 312
220 241 219 145 127 170 202 145 157 161 157 164 158 72 128 134 104 69 40 16 354 347 340 334 335 338 332 324 312 313 307 305 303 300 296 291 291 291 293 300 307 315 310 306
205 231 244 81 155 213 109 117 124 124 117 115 114 112 120 116 79 45 12 346 335 320 311 308 305 305 297 291 292 295 292 287 286 286 286 282 281 280 279 285 298 303 301 298
257 11 353 332 57 118 122 114 112 112 107 110 113 102 89 57 14 353 335 328 323 313 307 300 298 292 290 288 292 292 287 279 278 281 280 279 279 280 280 280 283 286 289 291
182 107 89 102 106 102 106 105 104 103 102 93 98 82 46 3 338 322 315 311 310 307 305 304 307 305 298 300 301 296 292 287 282 281 280 280 279 277 274 270 273 276 277 280
93 142 130 118 116 113 104 104 105 103 109 105 97 68 354 331 326 322 317 313 310 304 300 298 301 300 301 301 300 294 289 287 285 284 280 277 275 272 268 266 263 270 273 274
188 170 141 154 142 132 119 113 105 105 98 69 33 359 338 319 312 308 307 306 302 298 295 294 293 291 292 290 289 290 290 288 284 284 281 279 278 277 273 273 274 279 278 267
145 152 128 134 138 137 118 115 99 83 55 -0 350 336 325 317 310 307 301 301 301 301 299 296 292 289 289 287 285 282 281 285 286 282 276 277 276 277 276 271 276 281 282 276
134 125 116 148 143 119 109 110 98 62 9 336 326 324 318 314 311 310 307 308 308 305 302 300 296 293 294 291 284 282 279 278 278 275 272 274 272 274 276 271 271 275 285 285
107 104 133 123 118 123 119 125 96 335 334 320 323 320 319 315 308 306 308 308 307 305 302 301 295 290 287 285 280 276 275 277 279 276 271 269 271 269 266 271 270 265 263 268
112 104 115 128 136 144 159 179 265 313 325 326 324 322 317 311 309 309 309 309 306 301 301 300 296 295 292 281 282 280 277 275 275 275 274 272 268 263 263 264 270 267 261 259
127 130 131 147 170 184 199 204 256 317 320 323 327 326 325 325 317 316 313 311 305 303 305 305 303 308 300 286 282 284 280 276 269 265 264 265 264 260 257 262 267 270 263 262
131 138 149 148 168 172 175 178 231 291 321 333 346 349 351 340 339 328 323 320 315 313 324 323 314 306 299 292 285 279 278 275 270 261 259 259 259 260 257 259 264 264 263 263
134 132 132 141 152 157 168 209 218 252 270 340 350 350 341 346 346 337 334 325 321 327 326 325 322 317 305 296 281 276 275 273 267 258 257 258 261 261 261 260 256 254 257 256
130 134 142 147 150 156 174 199 214 231 216 307 323 327 333 340 343 341 339 334 333 331 328 333 333 333 328 325 316 285 280 279 271 266 271 267 259 256 249 249 251 248 249 244
148 152 161 161 158 178 207 213 232 234 269 286 301 326 329 330 335 338 342 341 341 342 342 348 343 343 350 344 334 318 312 317 309 296 286 272 267 260 254 249 246 247 240 228
161 167 169 166 179 214 228 231 243 254 278 291 305 320 324 325 336 336 344 345 339 350 352 353 350 349 356 7 11 10 7 4 359 347 333 322 306 293 275 257 247 234 216 214
171 181 189 189 205 221 231 242 254 262 278 292 307 316 319 323 331 317 329 350 352 17 15 11 19 18 18 20 20 19 17 13 7 360 353 346 335 323 303 238 213 192 173 174
192 206 205 203 211 216 246 258 264 274 276 288 290 300 313 335 323 323 309 326 349 357 20 17 17 12 12 16 24 22 26 22 16 7 7 7 5 9 35 82 122 138 146 145
202 205 206 208 212 235 264 285 292 287 288 297 298 314 334 325 283 316 325 309 317 323 323 337 348 5 3 4 7 8 17 16 23 18 22 26 30 42 62 86 105 107 106 118
210 221 212 216 243 264 282 285 277 288 289 296 311 332 328 323 326 328 331 336 338 310 307 321 324 336 6 2 3 13 14 13 20 27 28 40 55 65 71 82 91 98 107 110
233 240 225 245 257 266 271 281 288 291 299 290 301 311 303 319 325 336 338 341 350 358 346 348 348 336 358 9 354 4 17 24 27 34 47 55 62 69 79 86 91 98 104 109